Location: Paris
(48.8566°N, 2.3522°E)
Time: 03:46:25
(UTC+01:00)

SENTINEL 3A - Visible Passes

Search period start: 24 March 2019 00:00
Search period end: 03 April 2019 01:00
Orbit: 802 x 803 km, 98.6° (Epoch: 23 March)

Date Brightness Start Highest point End Pass type
(mag) Time Alt. Az. Time Alt. Az. Time Alt. Az.
24 Mar ? 21:30:47 44° ENE 21:31:03 44° ENE 21:36:03 10° N visible
24 Mar ? 23:11:46 29° WNW 23:11:46 29° WNW 23:15:34 10° NNW visible
25 Mar ? 21:04:30 27° E 21:05:23 29° ENE 21:09:52 10° N visible
25 Mar ? 22:45:29 46° WNW 22:45:29 46° WNW 22:50:01 10° NNW visible
26 Mar ? 20:38:13 17° E 20:39:50 19° ENE 20:43:28 10° NNE visible
26 Mar ? 22:19:12 76° WNW 22:19:12 76° WNW 22:24:17 10° NNW visible
27 Mar ? 00:00:11 12° WNW 00:00:11 12° WNW 00:01:33 10° WNW visible
27 Mar ? 20:12:08 10° ENE 20:14:21 13° NE 20:16:35 10° NNE visible
27 Mar ? 21:52:55 65° E 21:53:08 66° ENE 21:58:23 10° N visible
27 Mar ? 23:33:54 20° W 23:33:54 20° W 23:37:11 10° NW visible
28 Mar ? 21:26:38 39° E 21:27:23 42° ENE 21:32:20 10° N visible
28 Mar ? 23:07:37 32° W 23:07:37 32° W 23:11:56 10° NNW visible
29 Mar ? 21:00:22 24° E 21:01:45 27° ENE 21:06:07 10° N visible
29 Mar ? 22:41:21 52° W 22:41:21 52° W 22:46:22 10° NNW visible
30 Mar ? 20:34:05 15° E 20:36:11 18° NE 20:39:41 10° NNE visible
30 Mar ? 22:15:04 81° SSW 22:15:17 84° WSW 22:20:36 10° NNW visible
30 Mar ? 23:56:03 13° W 23:56:03 13° W 23:58:13 10° WNW visible
31 Mar ? 21:08:50 10° ENE 21:10:44 12° NE 21:12:39 10° NNE visible
31 Mar ? 22:48:47 56° ESE 22:49:28 62° ENE 22:54:41 10° N visible
01 Apr ? 00:29:46 21° W 00:29:46 21° W 00:33:37 10° NW visible
01 Apr ? 22:22:31 34° E 22:23:44 39° ENE 22:28:37 10° N visible
02 Apr ? 00:03:29 34° W 00:03:31 34° W 00:08:18 10° NNW visible
02 Apr ? 21:56:14 21° E 21:58:06 26° ENE 22:02:23 10° N visible
02 Apr ? 23:37:13 55° WSW 23:37:31 56° W 23:42:42 10° NNW visible
